Notices

What's New in latest Release from April 7th, 2021:

- Updated Glossary, including Speed of Maximum Gust, and Total Hourly Precipitation

- Updated national and regional climate services offices contacts and prices information

- Addition of station inventory lists for 1981-2010, 1971-2000, and 1961-1990 Normals.

If you haven't already, please take our survey and provide feedback about our website: https://eccc.sondage-survey.ca/f/LanguageSelection.aspx?s=442ca660-fcf1-47c0-95a9-59707d6fd709

Hourly Data Report for March 16, 2021

OTTAWA INTL A
ONTARIO
Current Station Operator: NAVCAN

45°19'00.000" N
75°40'00.000" W
114.90 m
6106001
71628
YOW

Download Data

Hourly Data (March 2021)
Hourly Data Report for March 16, 2021
TIME
LST
Temp Definition
°C
Dew Point Definition
°C
Rel Hum Definition
%
Precip. Amount Definition
mm

Wind Dir Definition
10's deg

Wind Spd Definition
km/h
Visibility Definition
km
Stn Press Definition
kPa
Hmdx Definition


Wind Chill Definition


Weather Definition


00:00 -9.1 -15.8 59   19 9 24.1 101.32   -14 LegendNANA
01:00 -9.3 -16.5 56   20 8 24.1 101.30   -14 Clear
02:00 -9.8 -16.0 61   19 7 24.1 101.25   -14 LegendNANA
03:00 -9.7 -16.3 59   19 7 24.1 101.19   -14 LegendNANA
04:00 -9.8 -14.9 66   19 8 24.1 101.19   -14 Clear
05:00 -10.2 -15.3 66   17 9 24.1 101.18   -15 LegendNANA
06:00 -10.1 -14.8 69   18 11 24.1 101.16   -16 LegendNANA
07:00 -10.0 -14.2 72   17 11 24.1 101.11   -16 Mainly Clear
08:00 -7.2 -12.5 66   16 7 24.1 101.05   -11 LegendNANA
09:00 -5.0 -12.6 55   17 9 24.1 101.03   -9 LegendNANA
10:00 -3.5 -14.0 44   17 11 24.1 100.97   -8 Mostly Cloudy
11:00 -2.2 -14.6 39   16 13 24.1 100.86   -7 LegendNANA
12:00 -1.4 -16.7 31   17 14 24.1 100.82   -6 LegendNANA
13:00 0.1 -13.9 35   18 14 24.1 100.73     Mainly Clear
14:00 0.7 -15.6 29   14 10 24.1 100.65     LegendNANA
15:00 1.7 -14.4 29   16 13 24.1 100.61     LegendNANA
16:00 2.4 -14.4 28   17 11 24.1 100.56     Mostly Cloudy
17:00 2.9 -14.6 26   21 8 24.1 100.52     LegendNANA
18:00 1.5 -14.0 31   19 7 24.1 100.52     LegendNANA
19:00 0.7 -14.9 30   17 7 24.1 100.53     Mostly Cloudy
20:00 -2.0 -8.8 60   10 3 24.1 100.54   -3 LegendNANA
21:00 -2.3 -10.9 52   19 7 24.1 100.56   -5 LegendNANA
22:00 -1.7 -12.2 45   20 4 24.1 100.59   -3 Clear
23:00 -2.0 -12.3 46   20 8 24.1 100.61   -5 LegendNANA

Notes on Data Quality.

Legend

  • E = Estimated
  • M = Missing
  • NA = Not Available*
  • [empty] = Indicates an unobserved value
Date modified: